Retour au catalogue

SL-16 DEB

ActifLEO
NORAD 39891·DEBRIS·🇷🇺 Russia

Lancé Mar 26, 1993 depuis Baikonur Cosmodrome

Loading…

Prochains Passages (prochaines 24 heures)

TLE

FraisSource: Space-Track

Époque: Sep 14, 2026, 01:56 UTC

1 39891U 93016BR  26257.08073764  .00001544  00000-0  45729-3 0  9990
2 39891  70.9983  25.3680 0008937  42.9832 317.2003 14.44936756643072

Suivez SL-16 DEB en temps réel avec AllMySat

Download on the App Store